Time,TemperatureF,DewpointF,PressureIn,WindDirection,WindDirectionDegrees,WindSpeedMPH,WindSpeedGustMPH,Humidity,HourlyPrecipIn,Conditions,Clouds,dailyrainin,SoftwareType,DateUTC
2013-09-23 00:03:00,43.9,28.0,29.24,North,0,0.0,-999.0,53,0.00,,,-99.99,,2013-09-23 08:03:00,
2013-09-23 00:08:00,43.9,27.7,29.24,North,0,0.0,-999.0,52,0.00,,,-99.99,,2013-09-23 08:08:00,
2013-09-23 00:13:00,43.6,27.3,29.24,North,0,0.0,-999.0,52,0.00,,,-99.99,,2013-09-23 08:13:00,
2013-09-23 00:18:00,43.9,27.6,29.24,North,0,0.0,-999.0,52,0.00,,,-99.99,,2013-09-23 08:18:00,
2013-09-23 00:23:00,44.0,26.6,29.24,North,0,0.0,-999.0,50,0.00,,,-99.99,,2013-09-23 08:23:00,
2013-09-23 00:28:00,43.8,26.7,29.24,North,0,0.0,-999.0,50,0.00,,,-99.99,,2013-09-23 08:28:00,
2013-09-23 00:33:00,44.0,26.9,29.24,North,0,0.0,-999.0,50,0.00,,,-99.99,,2013-09-23 08:33:00,
2013-09-23 00:38:00,43.8,26.9,29.24,North,0,0.0,-999.0,51,0.00,,,-99.99,,2013-09-23 08:38:00,
2013-09-23 00:43:00,44.0,27.6,29.24,North,0,0.0,-999.0,52,0.00,,,-99.99,,2013-09-23 08:43:00,
2013-09-23 00:48:00,44.0,26.9,29.24,North,0,0.0,-999.0,50,0.00,,,-99.99,,2013-09-23 08:48:00,
2013-09-23 00:53:00,44.0,26.0,29.24,North,0,0.0,-999.0,48,0.00,,,-99.99,,2013-09-23 08:53:00,
2013-09-23 00:58:00,44.1,25.8,29.24,North,0,0.0,-999.0,48,0.00,,,-99.99,,2013-09-23 08:58:00,
2013-09-23 01:03:00,44.1,27.2,29.25,North,0,0.0,-999.0,51,0.00,,,-99.99,,2013-09-23 09:03:00,
2013-09-23 01:08:00,44.3,27.0,29.25,North,0,0.0,-999.0,50,0.00,,,-99.99,,2013-09-23 09:08:00,
2013-09-23 01:13:00,44.4,26.9,29.25,North,0,0.0,-999.0,49,0.00,,,-99.99,,2013-09-23 09:13:00,
2013-09-23 01:18:00,44.3,25.9,29.25,North,0,0.0,-999.0,48,0.00,,,-99.99,,2013-09-23 09:18:00,
2013-09-23 01:23:00,44.0,26.0,29.25,North,0,0.0,-999.0,48,0.00,,,-99.99,,2013-09-23 09:23:00,
2013-09-23 01:28:00,44.0,26.7,29.25,North,0,0.0,-999.0,50,0.00,,,-99.99,,2013-09-23 09:28:00,
2013-09-23 01:33:00,43.7,27.0,29.25,North,0,0.0,-999.0,51,0.00,,,-99.99,,2013-09-23 09:33:00,
2013-09-23 01:38:00,43.6,28.0,29.25,North,0,0.0,-999.0,53,0.00,,,-99.99,,2013-09-23 09:38:00,
2013-09-23 01:43:00,43.6,27.5,29.25,North,0,0.0,-999.0,52,0.00,,,-99.99,,2013-09-23 09:43:00,
2013-09-23 01:48:00,43.8,27.6,29.25,North,0,0.0,-999.0,52,0.00,,,-99.99,,2013-09-23 09:48:00,
2013-09-23 01:53:00,43.4,28.0,29.25,North,0,0.0,-999.0,54,0.00,,,-99.99,,2013-09-23 09:53:00,
2013-09-23 01:58:00,43.3,27.4,29.25,North,0,0.0,-999.0,53,0.00,,,-99.99,,2013-09-23 09:58:00,
2013-09-23 02:03:00,43.3,27.9,29.28,North,0,0.0,-999.0,54,0.00,,,-99.99,,2013-09-23 10:03:00,
2013-09-23 02:08:00,43.3,27.6,29.28,North,0,0.0,-999.0,53,0.00,,,-99.99,,2013-09-23 10:08:00,
2013-09-23 02:13:00,43.4,27.2,29.28,North,0,0.0,-999.0,52,0.00,,,-99.99,,2013-09-23 10:13:00,
2013-09-23 02:18:00,43.3,26.9,29.28,North,0,0.0,-999.0,52,0.00,,,-99.99,,2013-09-23 10:18:00,
2013-09-23 02:23:00,43.3,28.2,29.28,North,0,0.0,-999.0,54,0.00,,,-99.99,,2013-09-23 10:23:00,
2013-09-23 02:28:00,43.0,28.3,29.28,North,0,0.0,-999.0,55,0.00,,,-99.99,,2013-09-23 10:28:00,
2013-09-23 02:33:00,43.1,28.1,29.28,North,0,0.0,-999.0,55,0.00,,,-99.99,,2013-09-23 10:33:00,
2013-09-23 02:38:00,43.4,27.9,29.28,North,0,0.0,-999.0,54,0.00,,,-99.99,,2013-09-23 10:38:00,
2013-09-23 02:43:00,43.3,27.4,29.28,North,0,0.0,-999.0,53,0.00,,,-99.99,,2013-09-23 10:43:00,
2013-09-23 02:48:00,43.4,28.4,29.28,North,0,0.0,-999.0,55,0.00,,,-99.99,,2013-09-23 10:48:00,
2013-09-23 02:53:00,43.3,28.0,29.28,North,0,0.0,-999.0,54,0.00,,,-99.99,,2013-09-23 10:53:00,
2013-09-23 02:58:00,43.4,27.2,29.28,North,0,0.0,-999.0,52,0.00,,,-99.99,,2013-09-23 10:58:00,
2013-09-23 03:03:00,43.2,27.9,29.30,North,0,0.0,-999.0,54,0.00,,,-99.99,,2013-09-23 11:03:00,
2013-09-23 03:08:00,43.1,27.2,29.30,North,0,0.0,-999.0,53,0.00,,,-99.99,,2013-09-23 11:08:00,
2013-09-23 03:13:00,43.1,27.1,29.30,North,0,0.0,-999.0,52,0.00,,,-99.99,,2013-09-23 11:13:00,
2013-09-23 03:18:00,42.9,28.0,29.30,North,0,0.0,-999.0,55,0.00,,,-99.99,,2013-09-23 11:18:00,
2013-09-23 03:23:00,42.7,28.5,29.30,North,0,0.0,-999.0,56,0.00,,,-99.99,,2013-09-23 11:23:00,
2013-09-23 03:28:00,42.4,28.5,29.30,North,0,0.0,-999.0,57,0.00,,,-99.99,,2013-09-23 11:28:00,
2013-09-23 03:33:00,42.7,28.5,29.30,North,0,0.0,-999.0,56,0.00,,,-99.99,,2013-09-23 11:33:00,
2013-09-23 03:38:00,42.5,28.6,29.30,North,0,0.0,-999.0,57,0.00,,,-99.99,,2013-09-23 11:38:00,
2013-09-23 03:43:00,43.0,29.1,29.30,North,0,0.0,-999.0,57,0.00,,,-99.99,,2013-09-23 11:43:00,
2013-09-23 03:48:00,43.0,29.6,29.30,North,0,0.0,-999.0,58,0.00,,,-99.99,,2013-09-23 11:48:00,
2013-09-23 03:53:00,42.9,29.5,29.30,North,0,0.0,-999.0,58,0.00,,,-99.99,,2013-09-23 11:53:00,
2013-09-23 03:58:00,42.9,29.5,29.30,North,0,0.0,-999.0,58,0.00,,,-99.99,,2013-09-23 11:58:00,
2013-09-23 04:03:00,42.8,29.2,29.32,North,0,0.0,-999.0,58,0.00,,,-99.99,,2013-09-23 12:03:00,
2013-09-23 04:08:00,42.5,29.3,29.32,North,0,0.0,-999.0,59,0.00,,,-99.99,,2013-09-23 12:08:00,
2013-09-23 04:13:00,42.7,29.1,29.32,North,0,0.0,-999.0,58,0.00,,,-99.99,,2013-09-23 12:13:00,
2013-09-23 04:18:00,42.4,28.1,29.32,North,0,0.0,-999.0,56,0.00,,,-99.99,,2013-09-23 12:18:00,
2013-09-23 04:23:00,42.5,28.1,29.32,North,0,0.0,-999.0,56,0.00,,,-99.99,,2013-09-23 12:23:00,
2013-09-23 04:28:00,42.3,27.8,29.32,North,0,0.0,-999.0,56,0.00,,,-99.99,,2013-09-23 12:28:00,
2013-09-23 04:33:00,42.5,27.2,29.32,North,0,0.0,-999.0,54,0.00,,,-99.99,,2013-09-23 12:33:00,
2013-09-23 04:38:00,42.3,27.7,29.32,North,0,0.0,-999.0,55,0.00,,,-99.99,,2013-09-23 12:38:00,
2013-09-23 04:43:00,42.3,27.9,29.32,North,0,0.0,-999.0,56,0.00,,,-99.99,,2013-09-23 12:43:00,
2013-09-23 04:48:00,42.4,27.9,29.32,North,0,0.0,-999.0,56,0.00,,,-99.99,,2013-09-23 12:48:00,
2013-09-23 04:53:00,42.0,29.0,29.32,North,0,0.0,-999.0,59,0.00,,,-99.99,,2013-09-23 12:53:00,
2013-09-23 04:58:00,42.3,28.8,29.32,North,0,0.0,-999.0,58,0.00,,,-99.99,,2013-09-23 12:58:00,
2013-09-23 05:03:00,42.4,28.6,29.34,North,0,0.0,-999.0,57,0.00,,,-99.99,,2013-09-23 13:03:00,
2013-09-23 05:08:00,42.4,28.9,29.34,North,0,0.0,-999.0,58,0.00,,,-99.99,,2013-09-23 13:08:00,
2013-09-23 05:13:00,42.1,29.2,29.34,North,0,0.0,-999.0,60,0.00,,,-99.99,,2013-09-23 13:13:00,
2013-09-23 05:18:00,42.1,28.4,29.34,North,0,0.0,-999.0,57,0.00,,,-99.99,,2013-09-23 13:18:00,
2013-09-23 05:23:00,42.1,26.8,29.34,North,0,0.0,-999.0,54,0.00,,,-99.99,,2013-09-23 13:23:00,
2013-09-23 05:28:00,42.3,28.8,29.34,North,0,0.0,-999.0,58,0.00,,,-99.99,,2013-09-23 13:28:00,
2013-09-23 05:33:00,41.9,28.4,29.34,North,0,0.0,-999.0,58,0.00,,,-99.99,,2013-09-23 13:33:00,
2013-09-23 05:38:00,41.9,28.6,29.34,North,0,0.0,-999.0,58,0.00,,,-99.99,,2013-09-23 13:38:00,
2013-09-23 05:43:00,41.8,28.4,29.34,North,0,0.0,-999.0,58,0.00,,,-99.99,,2013-09-23 13:43:00,
2013-09-23 05:48:00,42.0,27.9,29.34,North,0,0.0,-999.0,57,0.00,,,-99.99,,2013-09-23 13:48:00,
2013-09-23 05:53:00,41.9,27.7,29.34,North,0,0.0,-999.0,56,0.00,,,-99.99,,2013-09-23 13:53:00,
2013-09-23 05:58:00,42.0,27.7,29.34,North,0,0.0,-999.0,56,0.00,,,-99.99,,2013-09-23 13:58:00,
2013-09-23 06:03:00,41.8,28.3,29.35,North,0,0.0,-999.0,58,0.00,,,-99.99,,2013-09-23 14:03:00,
2013-09-23 06:08:00,41.8,27.8,29.35,North,0,0.0,-999.0,57,0.00,,,-99.99,,2013-09-23 14:08:00,
2013-09-23 06:13:00,41.7,28.3,29.35,North,0,0.0,-999.0,58,0.00,,,-99.99,,2013-09-23 14:13:00,
2013-09-23 06:18:00,41.8,28.3,29.35,North,0,0.0,-999.0,58,0.00,,,-99.99,,2013-09-23 14:18:00,
2013-09-23 06:23:00,42.0,28.5,29.35,North,0,0.0,-999.0,58,0.00,,,-99.99,,2013-09-23 14:23:00,
2013-09-23 06:28:00,41.9,28.2,29.35,North,0,0.0,-999.0,58,0.00,,,-99.99,,2013-09-23 14:28:00,
2013-09-23 06:33:00,41.6,28.5,29.35,North,0,0.0,-999.0,59,0.00,,,-99.99,,2013-09-23 14:33:00,
2013-09-23 06:38:00,41.4,28.8,29.35,North,0,0.0,-999.0,60,0.00,,,-99.99,,2013-09-23 14:38:00,
2013-09-23 06:43:00,41.8,28.0,29.35,North,0,0.0,-999.0,57,0.00,,,-99.99,,2013-09-23 14:43:00,
2013-09-23 06:48:00,41.7,28.1,29.35,North,0,0.0,-999.0,58,0.00,,,-99.99,,2013-09-23 14:48:00,
2013-09-23 06:53:00,41.5,28.3,29.35,North,0,0.0,-999.0,59,0.00,,,-99.99,,2013-09-23 14:53:00,
2013-09-23 06:58:00,41.3,28.0,29.35,North,0,0.0,-999.0,58,0.00,,,-99.99,,2013-09-23 14:58:00,
2013-09-23 07:03:00,41.4,27.6,29.36,North,0,0.0,-999.0,57,0.00,,,-99.99,,2013-09-23 15:03:00,
2013-09-23 07:08:00,41.2,28.2,29.36,North,0,0.0,-999.0,59,0.00,,,-99.99,,2013-09-23 15:08:00,
2013-09-23 07:13:00,41.2,27.8,29.36,North,0,0.0,-999.0,58,0.00,,,-99.99,,2013-09-23 15:13:00,
2013-09-23 07:18:00,41.3,28.0,29.36,North,0,0.0,-999.0,59,0.00,,,-99.99,,2013-09-23 15:18:00,
2013-09-23 07:23:00,41.0,28.2,29.36,North,0,0.0,-999.0,60,0.00,,,-99.99,,2013-09-23 15:23:00,
2013-09-23 07:28:00,41.0,27.3,29.36,North,0,0.0,-999.0,57,0.00,,,-99.99,,2013-09-23 15:28:00,
2013-09-23 07:33:00,41.1,27.5,29.36,North,0,0.0,-999.0,58,0.00,,,-99.99,,2013-09-23 15:33:00,
2013-09-23 07:38:00,41.0,27.2,29.36,North,0,0.0,-999.0,57,0.00,,,-99.99,,2013-09-23 15:38:00,
2013-09-23 07:43:00,40.5,27.4,29.36,North,0,0.0,-999.0,59,0.00,,,-99.99,,2013-09-23 15:43:00,
2013-09-23 07:48:00,40.8,27.7,29.36,North,0,0.0,-999.0,59,0.00,,,-99.99,,2013-09-23 15:48:00,
2013-09-23 07:53:00,41.4,26.5,29.36,North,0,0.0,-999.0,54,0.00,,,-99.99,,2013-09-23 15:53:00,
2013-09-23 07:58:00,41.2,27.1,29.36,North,0,0.0,-999.0,56,0.00,,,-99.99,,2013-09-23 15:58:00,
2013-09-23 08:03:00,41.0,26.3,29.37,North,0,0.0,-999.0,55,0.00,,,-99.99,,2013-09-23 16:03:00,
2013-09-23 08:08:00,41.6,26.3,29.37,North,0,0.0,-999.0,54,0.00,,,-99.99,,2013-09-23 16:08:00,
2013-09-23 08:13:00,41.4,26.8,29.37,North,0,0.0,-999.0,55,0.00,,,-99.99,,2013-09-23 16:13:00,
2013-09-23 08:18:00,41.1,26.8,29.37,North,0,0.0,-999.0,56,0.00,,,-99.99,,2013-09-23 16:18:00,
2013-09-23 08:23:00,41.2,25.5,29.37,North,0,0.0,-999.0,53,0.00,,,-99.99,,2013-09-23 16:23:00,
2013-09-23 08:28:00,41.3,26.5,29.37,North,0,0.0,-999.0,55,0.00,,,-99.99,,2013-09-23 16:28:00,
2013-09-23 08:33:00,41.1,26.4,29.37,North,0,0.0,-999.0,55,0.00,,,-99.99,,2013-09-23 16:33:00,
2013-09-23 08:38:00,41.1,26.2,29.37,North,0,0.0,-999.0,55,0.00,,,-99.99,,2013-09-23 16:38:00,
2013-09-23 08:43:00,41.1,25.5,29.37,North,0,0.0,-999.0,53,0.00,,,-99.99,,2013-09-23 16:43:00,
2013-09-23 08:48:00,41.3,26.5,29.37,North,0,0.0,-999.0,55,0.00,,,-99.99,,2013-09-23 16:48:00,
2013-09-23 08:53:00,41.3,26.0,29.37,North,0,0.0,-999.0,54,0.00,,,-99.99,,2013-09-23 16:53:00,
2013-09-23 08:58:00,41.3,25.4,29.37,North,0,0.0,-999.0,52,0.00,,,-99.99,,2013-09-23 16:58:00,
2013-09-23 09:03:00,41.5,25.7,29.40,North,0,0.0,-999.0,53,0.00,,,-99.99,,2013-09-23 17:03:00,
2013-09-23 09:08:00,41.6,26.3,29.40,North,0,0.0,-999.0,54,0.00,,,-99.99,,2013-09-23 17:08:00,
2013-09-23 09:13:00,41.8,25.7,29.40,North,0,0.0,-999.0,52,0.00,,,-99.99,,2013-09-23 17:13:00,
2013-09-23 09:18:00,42.5,25.6,29.40,North,0,0.0,-999.0,50,0.00,,,-99.99,,2013-09-23 17:18:00,
2013-09-23 09:23:00,42.5,24.1,29.40,North,0,0.0,-999.0,47,0.00,,,-99.99,,2013-09-23 17:23:00,
2013-09-23 09:28:00,42.7,26.0,29.40,North,0,0.0,-999.0,51,0.00,,,-99.99,,2013-09-23 17:28:00,
2013-09-23 09:33:00,43.3,26.7,29.40,North,0,0.0,-999.0,51,0.00,,,-99.99,,2013-09-23 17:33:00,
2013-09-23 09:39:00,42.9,25.8,29.40,North,0,0.0,-999.0,50,0.00,,,-99.99,,2013-09-23 17:39:00,
2013-09-23 09:44:00,43.4,26.0,29.40,North,0,0.0,-999.0,49,0.00,,,-99.99,,2013-09-23 17:44:00,
2013-09-23 09:49:00,44.1,26.1,29.40,North,0,0.0,-999.0,48,0.00,,,-99.99,,2013-09-23 17:49:00,
2013-09-23 09:54:00,43.6,24.4,29.40,North,0,0.0,-999.0,46,0.00,,,-99.99,,2013-09-23 17:54:00,
2013-09-23 09:59:00,44.8,26.0,29.40,North,0,0.0,-999.0,47,0.00,,,-99.99,,2013-09-23 17:59:00,
2013-09-23 10:04:00,44.2,26.9,29.42,North,0,0.0,-999.0,50,0.00,,,-99.99,,2013-09-23 18:04:00,
2013-09-23 10:09:00,44.6,25.8,29.42,North,0,0.0,-999.0,47,0.00,,,-99.99,,2013-09-23 18:09:00,
2013-09-23 10:14:00,44.4,26.4,29.42,North,0,0.0,-999.0,49,0.00,,,-99.99,,2013-09-23 18:14:00,
2013-09-23 10:19:00,44.1,24.7,29.42,North,0,0.0,-999.0,45,0.00,,,-99.99,,2013-09-23 18:19:00,
2013-09-23 10:24:00,44.6,26.0,29.42,North,0,0.0,-999.0,47,0.00,,,-99.99,,2013-09-23 18:24:00,
2013-09-23 10:29:00,44.8,25.6,29.42,North,0,0.0,-999.0,46,0.00,,,-99.99,,2013-09-23 18:29:00,
2013-09-23 10:34:00,45.2,26.3,29.42,North,0,0.0,-999.0,47,0.00,,,-99.99,,2013-09-23 18:34:00,
2013-09-23 10:39:00,45.4,26.6,29.42,North,0,0.0,-999.0,47,0.00,,,-99.99,,2013-09-23 18:39:00,
2013-09-23 10:44:00,45.6,26.6,29.42,North,0,0.0,-999.0,47,0.00,,,-99.99,,2013-09-23 18:44:00,
2013-09-23 10:49:00,45.5,26.9,29.42,North,0,0.0,-999.0,47,0.00,,,-99.99,,2013-09-23 18:49:00,
2013-09-23 10:54:00,45.2,25.4,29.42,North,0,0.0,-999.0,45,0.00,,,-99.99,,2013-09-23 18:54:00,
2013-09-23 10:59:00,46.0,25.7,29.42,North,0,0.0,-999.0,44,0.00,,,-99.99,,2013-09-23 18:59:00,
2013-09-23 11:04:00,45.5,24.4,29.43,North,0,0.0,-999.0,43,0.00,,,-99.99,,2013-09-23 19:04:00,
2013-09-23 11:09:00,45.8,25.5,29.43,North,0,0.0,-999.0,44,0.00,,,-99.99,,2013-09-23 19:09:00,
2013-09-23 11:14:00,45.9,25.8,29.43,North,0,0.0,-999.0,45,0.00,,,-99.99,,2013-09-23 19:14:00,
2013-09-23 11:19:00,45.9,24.5,29.43,North,0,0.0,-999.0,42,0.00,,,-99.99,,2013-09-23 19:19:00,
2013-09-23 11:24:00,45.9,26.2,29.43,North,0,0.0,-999.0,45,0.00,,,-99.99,,2013-09-23 19:24:00,
2013-09-23 11:29:00,45.9,24.4,29.43,North,0,0.0,-999.0,42,0.00,,,-99.99,,2013-09-23 19:29:00,
2013-09-23 11:34:00,46.1,25.9,29.43,North,0,0.0,-999.0,44,0.00,,,-99.99,,2013-09-23 19:34:00,
2013-09-23 11:39:00,46.2,26.0,29.43,North,0,0.0,-999.0,44,0.00,,,-99.99,,2013-09-23 19:39:00,
2013-09-23 11:44:00,46.1,26.9,29.43,North,0,0.0,-999.0,46,0.00,,,-99.99,,2013-09-23 19:44:00,
2013-09-23 11:49:00,46.0,27.3,29.43,North,0,0.0,-999.0,47,0.00,,,-99.99,,2013-09-23 19:49:00,
2013-09-23 11:54:00,46.3,27.2,29.43,North,0,0.0,-999.0,47,0.00,,,-99.99,,2013-09-23 19:54:00,
2013-09-23 11:59:00,46.7,27.7,29.43,North,0,0.0,-999.0,47,0.00,,,-99.99,,2013-09-23 19:59:00,
2013-09-23 12:04:00,46.5,25.6,29.46,North,0,0.0,-999.0,43,0.00,,,-99.99,,2013-09-23 20:04:00,
2013-09-23 12:09:00,46.0,26.0,29.46,North,0,0.0,-999.0,45,0.00,,,-99.99,,2013-09-23 20:09:00,
2013-09-23 12:14:00,46.3,26.1,29.46,North,0,0.0,-999.0,44,0.00,,,-99.99,,2013-09-23 20:14:00,
2013-09-23 12:19:00,46.4,25.7,29.46,North,0,0.0,-999.0,43,0.00,,,-99.99,,2013-09-23 20:19:00,
2013-09-23 12:24:00,47.2,25.8,29.46,North,0,0.0,-999.0,42,0.00,,,-99.99,,2013-09-23 20:24:00,
2013-09-23 12:29:00,46.4,25.0,29.46,North,0,0.0,-999.0,42,0.00,,,-99.99,,2013-09-23 20:29:00,
2013-09-23 12:34:00,46.6,25.3,29.46,North,0,0.0,-999.0,43,0.00,,,-99.99,,2013-09-23 20:34:00,
2013-09-23 12:39:00,46.8,26.1,29.46,North,0,0.0,-999.0,44,0.00,,,-99.99,,2013-09-23 20:39:00,
2013-09-23 12:44:00,46.8,25.2,29.46,North,0,0.0,-999.0,42,0.00,,,-99.99,,2013-09-23 20:44:00,
2013-09-23 12:49:00,47.3,25.9,29.46,North,0,0.0,-999.0,42,0.00,,,-99.99,,2013-09-23 20:49:00,
2013-09-23 12:54:00,47.0,26.0,29.46,North,0,0.0,-999.0,43,0.00,,,-99.99,,2013-09-23 20:54:00,
2013-09-23 12:59:00,47.3,25.4,29.46,North,0,0.0,-999.0,42,0.00,,,-99.99,,2013-09-23 20:59:00,
2013-09-23 13:04:00,47.6,25.3,29.47,North,0,0.0,-999.0,41,0.00,,,-99.99,,2013-09-23 21:04:00,
2013-09-23 13:09:00,48.0,26.3,29.47,North,0,0.0,-999.0,42,0.00,,,-99.99,,2013-09-23 21:09:00,
2013-09-23 13:14:00,47.8,25.7,29.47,North,0,0.0,-999.0,41,0.00,,,-99.99,,2013-09-23 21:14:00,
2013-09-23 13:19:00,48.4,25.7,29.47,North,0,0.0,-999.0,40,0.00,,,-99.99,,2013-09-23 21:19:00,
2013-09-23 13:24:00,48.5,25.5,29.47,North,0,0.0,-999.0,40,0.00,,,-99.99,,2013-09-23 21:24:00,
2013-09-23 13:29:00,48.7,26.0,29.47,North,0,0.0,-999.0,40,0.00,,,-99.99,,2013-09-23 21:29:00,
2013-09-23 13:34:00,49.4,25.8,29.47,North,0,0.0,-999.0,39,0.00,,,-99.99,,2013-09-23 21:34:00,
2013-09-23 13:39:00,48.7,26.0,29.47,North,0,0.0,-999.0,40,0.00,,,-99.99,,2013-09-23 21:39:00,
2013-09-23 13:44:00,49.0,25.5,29.47,North,0,0.0,-999.0,39,0.00,,,-99.99,,2013-09-23 21:44:00,
2013-09-23 13:49:00,48.9,26.5,29.47,North,0,0.0,-999.0,41,0.00,,,-99.99,,2013-09-23 21:49:00,
2013-09-23 13:54:00,49.3,25.4,29.47,North,0,0.0,-999.0,38,0.00,,,-99.99,,2013-09-23 21:54:00,
2013-09-23 13:59:00,48.9,25.6,29.47,North,0,0.0,-999.0,39,0.00,,,-99.99,,2013-09-23 21:59:00,
2013-09-23 14:04:00,48.9,23.2,29.48,North,0,0.0,-999.0,36,0.00,,,-99.99,,2013-09-23 22:04:00,
2013-09-23 14:09:00,49.2,26.2,29.48,North,0,0.0,-999.0,40,0.00,,,-99.99,,2013-09-23 22:09:00,
2013-09-23 14:14:00,49.2,24.7,29.48,North,0,0.0,-999.0,37,0.00,,,-99.99,,2013-09-23 22:14:00,
2013-09-23 14:19:00,49.0,24.5,29.48,North,0,0.0,-999.0,37,0.00,,,-99.99,,2013-09-23 22:19:00,
2013-09-23 14:24:00,49.3,25.1,29.48,North,0,0.0,-999.0,38,0.00,,,-99.99,,2013-09-23 22:24:00,
2013-09-23 14:29:00,48.9,24.5,29.48,North,0,0.0,-999.0,38,0.00,,,-99.99,,2013-09-23 22:29:00,
2013-09-23 14:34:00,48.9,25.3,29.48,North,0,0.0,-999.0,39,0.00,,,-99.99,,2013-09-23 22:34:00,
2013-09-23 14:39:00,49.7,26.0,29.48,North,0,0.0,-999.0,39,0.00,,,-99.99,,2013-09-23 22:39:00,
2013-09-23 14:44:00,49.6,25.4,29.48,North,0,0.0,-999.0,38,0.00,,,-99.99,,2013-09-23 22:44:00,
2013-09-23 14:49:00,49.1,24.5,29.48,North,0,0.0,-999.0,37,0.00,,,-99.99,,2013-09-23 22:49:00,
2013-09-23 14:54:00,49.4,24.3,29.48,North,0,0.0,-999.0,37,0.00,,,-99.99,,2013-09-23 22:54:00,
2013-09-23 14:59:00,49.4,24.8,29.48,North,0,0.0,-999.0,37,0.00,,,-99.99,,2013-09-23 22:59:00,
2013-09-23 15:04:00,49.7,26.2,29.51,North,0,0.0,-999.0,39,0.00,,,-99.99,,2013-09-23 23:04:00,
2013-09-23 15:09:00,49.8,24.5,29.51,North,0,0.0,-999.0,36,0.00,,,-99.99,,2013-09-23 23:09:00,
2013-09-23 15:14:00,50.2,23.9,29.51,North,0,0.0,-999.0,35,0.00,,,-99.99,,2013-09-23 23:14:00,
2013-09-23 15:19:00,50.4,23.8,29.51,North,0,0.0,-999.0,35,0.00,,,-99.99,,2013-09-23 23:19:00,
2013-09-23 15:24:00,50.0,25.3,29.51,North,0,0.0,-999.0,37,0.00,,,-99.99,,2013-09-23 23:24:00,
2013-09-23 15:29:00,50.3,25.6,29.51,North,0,0.0,-999.0,37,0.00,,,-99.99,,2013-09-23 23:29:00,
2013-09-23 15:34:00,49.7,26.0,29.51,North,0,0.0,-999.0,39,0.00,,,-99.99,,2013-09-23 23:34:00,
2013-09-23 15:39:00,49.8,24.9,29.51,North,0,0.0,-999.0,37,0.00,,,-99.99,,2013-09-23 23:39:00,
2013-09-23 15:44:00,49.7,24.4,29.51,North,0,0.0,-999.0,36,0.00,,,-99.99,,2013-09-23 23:44:00,
2013-09-23 15:49:00,49.7,22.5,29.51,North,0,0.0,-999.0,33,0.00,,,-99.99,,2013-09-23 23:49:00,
2013-09-23 15:54:00,49.7,23.1,29.51,North,0,0.0,-999.0,34,0.00,,,-99.99,,2013-09-23 23:54:00,
2013-09-23 15:59:00,49.5,24.4,29.51,North,0,0.0,-999.0,37,0.00,,,-99.99,,2013-09-23 23:59:00,
2013-09-23 16:04:00,49.2,25.5,29.54,North,0,0.0,-999.0,39,0.00,,,-99.99,,2013-09-24 00:04:00,
2013-09-23 16:09:00,49.2,26.5,29.54,North,0,0.0,-999.0,40,0.00,,,-99.99,,2013-09-24 00:09:00,
2013-09-23 16:14:00,49.6,26.6,29.54,North,0,0.0,-999.0,40,0.00,,,-99.99,,2013-09-24 00:14:00,
2013-09-23 16:19:00,48.9,26.3,29.54,North,0,0.0,-999.0,41,0.00,,,-99.99,,2013-09-24 00:19:00,
2013-09-23 16:24:00,49.5,25.0,29.54,North,0,0.0,-999.0,38,0.00,,,-99.99,,2013-09-24 00:24:00,
2013-09-23 16:29:00,49.1,22.2,29.54,North,0,0.0,-999.0,34,0.00,,,-99.99,,2013-09-24 00:29:00,
2013-09-23 16:34:00,49.0,24.4,29.54,North,0,0.0,-999.0,37,0.00,,,-99.99,,2013-09-24 00:34:00,
2013-09-23 16:39:00,49.2,22.2,29.54,North,0,0.0,-999.0,34,0.00,,,-99.99,,2013-09-24 00:39:00,
2013-09-23 16:44:00,48.9,24.8,29.54,North,0,0.0,-999.0,38,0.00,,,-99.99,,2013-09-24 00:44:00,
2013-09-23 16:49:00,49.2,25.4,29.54,North,0,0.0,-999.0,39,0.00,,,-99.99,,2013-09-24 00:49:00,
2013-09-23 16:54:00,49.2,25.3,29.54,North,0,0.0,-999.0,38,0.00,,,-99.99,,2013-09-24 00:54:00,
2013-09-23 16:59:00,49.3,25.3,29.54,North,0,0.0,-999.0,38,0.00,,,-99.99,,2013-09-24 00:59:00,
2013-09-23 17:04:00,49.4,25.1,29.56,North,0,0.0,-999.0,38,0.00,,,-99.99,,2013-09-24 01:04:00,
2013-09-23 17:09:00,49.3,24.4,29.56,North,0,0.0,-999.0,37,0.00,,,-99.99,,2013-09-24 01:09:00,
2013-09-23 17:14:00,49.1,24.9,29.56,North,0,0.0,-999.0,38,0.00,,,-99.99,,2013-09-24 01:14:00,
2013-09-23 17:19:00,48.6,23.9,29.56,North,0,0.0,-999.0,37,0.00,,,-99.99,,2013-09-24 01:19:00,
2013-09-23 17:24:00,48.6,26.2,29.56,North,0,0.0,-999.0,41,0.00,,,-99.99,,2013-09-24 01:24:00,
2013-09-23 17:29:00,47.8,26.0,29.56,North,0,0.0,-999.0,42,0.00,,,-99.99,,2013-09-24 01:29:00,
2013-09-23 17:34:00,47.9,25.3,29.56,North,0,0.0,-999.0,40,0.00,,,-99.99,,2013-09-24 01:34:00,
2013-09-23 17:39:00,48.0,26.8,29.56,North,0,0.0,-999.0,43,0.00,,,-99.99,,2013-09-24 01:39:00,
2013-09-23 17:44:00,48.2,26.5,29.56,North,0,0.0,-999.0,42,0.00,,,-99.99,,2013-09-24 01:44:00,
2013-09-23 17:49:00,48.1,26.2,29.56,North,0,0.0,-999.0,42,0.00,,,-99.99,,2013-09-24 01:49:00,
2013-09-23 17:54:00,48.2,26.6,29.56,North,0,0.0,-999.0,42,0.00,,,-99.99,,2013-09-24 01:54:00,
2013-09-23 17:59:00,47.5,26.1,29.56,North,0,0.0,-999.0,42,0.00,,,-99.99,,2013-09-24 01:59:00,
2013-09-23 18:04:00,47.8,25.9,29.57,North,0,0.0,-999.0,42,0.00,,,-99.99,,2013-09-24 02:04:00,
2013-09-23 18:09:00,47.6,26.0,29.57,North,0,0.0,-999.0,42,0.00,,,-99.99,,2013-09-24 02:09:00,
2013-09-23 18:14:00,47.6,26.0,29.57,North,0,0.0,-999.0,42,0.00,,,-99.99,,2013-09-24 02:14:00,
2013-09-23 18:19:00,47.3,26.2,29.57,North,0,0.0,-999.0,43,0.00,,,-99.99,,2013-09-24 02:19:00,
2013-09-23 18:24:00,47.5,27.7,29.57,North,0,0.0,-999.0,45,0.00,,,-99.99,,2013-09-24 02:24:00,
2013-09-23 18:29:00,47.0,27.7,29.57,North,0,0.0,-999.0,46,0.00,,,-99.99,,2013-09-24 02:29:00,
2013-09-23 18:34:00,47.1,26.6,29.57,North,0,0.0,-999.0,44,0.00,,,-99.99,,2013-09-24 02:34:00,
2013-09-23 18:39:00,46.8,28.0,29.57,North,0,0.0,-999.0,47,0.00,,,-99.99,,2013-09-24 02:39:00,
2013-09-23 18:44:00,47.0,28.2,29.57,North,0,0.0,-999.0,47,0.00,,,-99.99,,2013-09-24 02:44:00,
2013-09-23 18:49:00,47.1,27.1,29.57,North,0,0.0,-999.0,45,0.00,,,-99.99,,2013-09-24 02:49:00,
2013-09-23 18:54:00,46.8,27.9,29.57,North,0,0.0,-999.0,47,0.00,,,-99.99,,2013-09-24 02:54:00,
2013-09-23 18:59:00,46.8,28.5,29.57,North,0,0.0,-999.0,48,0.00,,,-99.99,,2013-09-24 02:59:00,
2013-09-23 19:04:00,46.3,28.0,29.59,North,0,0.0,-999.0,48,0.00,,,-99.99,,2013-09-24 03:04:00,
2013-09-23 19:09:00,45.8,27.8,29.59,North,0,0.0,-999.0,49,0.00,,,-99.99,,2013-09-24 03:09:00,
2013-09-23 19:14:00,45.7,28.7,29.59,North,0,0.0,-999.0,51,0.00,,,-99.99,,2013-09-24 03:14:00,
2013-09-23 19:19:00,45.4,27.9,29.59,North,0,0.0,-999.0,50,0.00,,,-99.99,,2013-09-24 03:19:00,
2013-09-23 19:24:00,45.5,28.5,29.59,North,0,0.0,-999.0,51,0.00,,,-99.99,,2013-09-24 03:24:00,
2013-09-23 19:29:00,45.0,28.3,29.59,North,0,0.0,-999.0,51,0.00,,,-99.99,,2013-09-24 03:29:00,
2013-09-23 19:34:00,44.9,28.5,29.59,North,0,0.0,-999.0,52,0.00,,,-99.99,,2013-09-24 03:34:00,
2013-09-23 19:39:00,44.6,28.8,29.59,North,0,0.0,-999.0,53,0.00,,,-99.99,,2013-09-24 03:39:00,
2013-09-23 19:44:00,44.6,28.5,29.59,North,0,0.0,-999.0,52,0.00,,,-99.99,,2013-09-24 03:44:00,
2013-09-23 19:49:00,44.3,29.1,29.59,North,0,0.0,-999.0,54,0.00,,,-99.99,,2013-09-24 03:49:00,
2013-09-23 19:54:00,44.4,29.1,29.59,North,0,0.0,-999.0,54,0.00,,,-99.99,,2013-09-24 03:54:00,
2013-09-23 19:59:00,44.0,29.2,29.59,North,0,0.0,-999.0,55,0.00,,,-99.99,,2013-09-24 03:59:00,
2013-09-23 20:02:00,44.1,29.4,29.60,North,0,0.0,-999.0,55,0.00,,,-99.99,,2013-09-24 04:02:00,
2013-09-23 20:03:00,44.0,29.5,29.60,North,0,0.0,-999.0,56,0.00,,,-99.99,,2013-09-24 04:03:00,
2013-09-23 20:08:00,44.0,29.8,29.60,North,0,0.0,-999.0,57,0.00,,,-99.99,,2013-09-24 04:08:00,
2013-09-23 20:11:00,43.8,29.4,29.60,North,0,0.0,-999.0,56,0.00,,,-99.99,,2013-09-24 04:11:00,
2013-09-23 20:13:00,43.7,29.5,29.60,North,0,0.0,-999.0,57,0.00,,,-99.99,,2013-09-24 04:13:00,
2013-09-23 20:18:00,43.5,28.6,29.60,North,0,0.0,-999.0,55,0.00,,,-99.99,,2013-09-24 04:18:00,
2013-09-23 20:23:00,43.5,28.5,29.60,North,0,0.0,-999.0,55,0.00,,,-99.99,,2013-09-24 04:23:00,
2013-09-23 20:28:00,43.3,28.4,29.60,North,0,0.0,-999.0,55,0.00,,,-99.99,,2013-09-24 04:28:00,
2013-09-23 20:33:00,43.0,28.5,29.60,North,0,0.0,-999.0,56,0.00,,,-99.99,,2013-09-24 04:33:00,
2013-09-23 20:38:00,42.9,28.4,29.60,North,0,0.0,-999.0,56,0.00,,,-99.99,,2013-09-24 04:38:00,
2013-09-23 20:43:00,42.9,28.0,29.60,North,0,0.0,-999.0,55,0.00,,,-99.99,,2013-09-24 04:43:00,
2013-09-23 20:48:00,42.9,28.4,29.60,North,0,0.0,-999.0,56,0.00,,,-99.99,,2013-09-24 04:48:00,
2013-09-23 20:53:00,43.0,27.8,29.60,North,0,0.0,-999.0,54,0.00,,,-99.99,,2013-09-24 04:53:00,
2013-09-23 20:58:00,43.0,27.7,29.60,North,0,0.0,-999.0,54,0.00,,,-99.99,,2013-09-24 04:58:00,
2013-09-23 21:03:00,42.9,28.0,29.63,North,0,0.0,-999.0,55,0.00,,,-99.99,,2013-09-24 05:03:00,
2013-09-23 21:08:00,42.5,28.3,29.63,North,0,0.0,-999.0,56,0.00,,,-99.99,,2013-09-24 05:08:00,
2013-09-23 21:13:00,42.3,28.0,29.63,North,0,0.0,-999.0,56,0.00,,,-99.99,,2013-09-24 05:13:00,
2013-09-23 21:18:00,42.2,28.0,29.63,North,0,0.0,-999.0,56,0.00,,,-99.99,,2013-09-24 05:18:00,
2013-09-23 21:23:00,42.2,28.6,29.63,North,0,0.0,-999.0,58,0.00,,,-99.99,,2013-09-24 05:23:00,
2013-09-23 21:28:00,42.2,28.6,29.63,North,0,0.0,-999.0,58,0.00,,,-99.99,,2013-09-24 05:28:00,
2013-09-23 21:33:00,42.1,28.4,29.63,North,0,0.0,-999.0,58,0.00,,,-99.99,,2013-09-24 05:33:00,
2013-09-23 21:38:00,42.6,28.5,29.63,North,0,0.0,-999.0,57,0.00,,,-99.99,,2013-09-24 05:38:00,
2013-09-23 21:43:00,42.4,27.8,29.63,North,0,0.0,-999.0,56,0.00,,,-99.99,,2013-09-24 05:43:00,
2013-09-23 21:48:00,42.4,28.3,29.63,North,0,0.0,-999.0,57,0.00,,,-99.99,,2013-09-24 05:48:00,
2013-09-23 21:53:00,42.5,28.5,29.63,North,0,0.0,-999.0,57,0.00,,,-99.99,,2013-09-24 05:53:00,
2013-09-23 21:58:00,42.3,27.9,29.63,North,0,0.0,-999.0,56,0.00,,,-99.99,,2013-09-24 05:58:00,
2013-09-23 22:03:00,42.9,28.0,29.65,North,0,0.0,-999.0,55,0.00,,,-99.99,,2013-09-24 06:03:00,
2013-09-23 22:08:00,43.0,28.5,29.65,North,0,0.0,-999.0,56,0.00,,,-99.99,,2013-09-24 06:08:00,
2013-09-23 22:13:00,43.2,29.1,29.65,North,0,0.0,-999.0,57,0.00,,,-99.99,,2013-09-24 06:13:00,
2013-09-23 22:18:00,43.2,29.3,29.65,North,0,0.0,-999.0,57,0.00,,,-99.99,,2013-09-24 06:18:00,
2013-09-23 22:23:00,42.5,29.6,29.65,North,0,0.0,-999.0,59,0.00,,,-99.99,,2013-09-24 06:23:00,
2013-09-23 22:28:00,42.1,29.1,29.65,North,0,0.0,-999.0,59,0.00,,,-99.99,,2013-09-24 06:28:00,
2013-09-23 22:33:00,42.0,28.8,29.65,North,0,0.0,-999.0,59,0.00,,,-99.99,,2013-09-24 06:33:00,
2013-09-23 22:38:00,42.1,29.1,29.65,North,0,0.0,-999.0,59,0.00,,,-99.99,,2013-09-24 06:38:00,
2013-09-23 22:43:00,41.8,29.1,29.65,North,0,0.0,-999.0,60,0.00,,,-99.99,,2013-09-24 06:43:00,
2013-09-23 22:48:00,41.4,28.9,29.65,North,0,0.0,-999.0,60,0.00,,,-99.99,,2013-09-24 06:48:00,
2013-09-23 22:53:00,41.0,28.6,29.65,North,0,0.0,-999.0,61,0.00,,,-99.99,,2013-09-24 06:53:00,
2013-09-23 22:58:00,40.9,28.2,29.65,North,0,0.0,-999.0,60,0.00,,,-99.99,,2013-09-24 06:58:00,
2013-09-23 23:03:00,41.0,28.3,29.68,North,0,0.0,-999.0,60,0.00,,,-99.99,,2013-09-24 07:03:00,
2013-09-23 23:08:00,41.1,27.2,29.68,North,0,0.0,-999.0,57,0.00,,,-99.99,,2013-09-24 07:08:00,
2013-09-23 23:13:00,41.6,27.1,29.68,North,0,0.0,-999.0,56,0.00,,,-99.99,,2013-09-24 07:13:00,
2013-09-23 23:18:00,41.6,26.6,29.68,North,0,0.0,-999.0,54,0.00,,,-99.99,,2013-09-24 07:18:00,
2013-09-23 23:23:00,41.3,27.7,29.68,North,0,0.0,-999.0,58,0.00,,,-99.99,,2013-09-24 07:23:00,
2013-09-23 23:28:00,41.1,27.4,29.68,North,0,0.0,-999.0,57,0.00,,,-99.99,,2013-09-24 07:28:00,
2013-09-23 23:33:00,40.4,27.5,29.68,North,0,0.0,-999.0,59,0.00,,,-99.99,,2013-09-24 07:33:00,
2013-09-23 23:38:00,40.1,27.2,29.68,North,0,0.0,-999.0,59,0.00,,,-99.99,,2013-09-24 07:38:00,
2013-09-23 23:43:00,39.8,27.2,29.68,North,0,0.0,-999.0,60,0.00,,,-99.99,,2013-09-24 07:43:00,
2013-09-23 23:48:00,39.8,27.7,29.68,North,0,0.0,-999.0,61,0.00,,,-99.99,,2013-09-24 07:48:00,
2013-09-23 23:53:00,40.1,27.8,29.68,North,0,0.0,-999.0,61,0.00,,,-99.99,,2013-09-24 07:53:00,
2013-09-23 23:58:00,40.4,27.5,29.68,North,0,0.0,-999.0,59,0.00,,,-99.99,,2013-09-24 07:58:00,